Regional Weather Roundup
Issued by NWS

Home | Current Version | Previous Version | Text Only | Print | Product List | Glossary Off
Versions: 1 2 3 4 5 6 7 8 9 10 11 12 13 14 15 16 17 18 19 20 21 22 23 24 25 26 27 28 29 30 31 32 33 34 35 36 37 38 39 40 41 42 43 44 45 46 47 48 49 50

000
ASUS45 KCYS 010110
RWRWY

WYOMING REGIONAL WEATHER ROUNDUP
NATIONAL WEATHER SERVICE CHEYENNE WY
700 PM MDT SUN AUG 31 2014

NOTE:  "FAIR" INDICATES FEW OR NO CLOUDS BELOW 12,000 FEET
WITH NO SIGNIFICANT WEATHER AND/OR OBSTRUCTIONS TO VISIBILITY.

WYZ001-010200-
YELLOWSTONE NATIONAL PARK

CITY           SKY/WX    TMP DP  RH WIND       PRES   REMARKS
LK YELLOWSTONE   N/A     46  40  79 VRB3      30.14R
W YELLOWSTONE  NOT AVBL

$$
WYZ002>013-054>058-071-098>099-010200-
NORTHERN WYOMING

CITY           SKY/WX    TMP DP  RH WIND       PRES   REMARKS
JACKSON        PTCLDY    55  39  54 CALM      30.08F
CODY             N/A    N/A N/A N/A MISG        N/A
GREYBULL       MOCLDY    64  45  49 W7        29.92R
WORLAND        MOCLDY    64  44  48 N7        29.93R
SHERIDAN       MOCLDY    64  43  46 W9        29.90R
BUFFALO        LGT RAIN  53  47  79 SW12      29.96R
GILLETTE       PTCLDY    58  51  78 SW6       29.90R
HULETT         FAIR      61  50  67 MISG      29.90
NEWCASTLE      RAIN      55  48  76 N15G28    29.91

$$
WYZ014>020-022>026-101>103-010200-
CENTRAL WYOMING

CITY           SKY/WX    TMP DP  RH WIND       PRES   REMARKS
BIG PINEY      PTCLDY    59  33  37 N13       30.11R
PINEDALE       PTCLDY    55  34  44 W16       30.12R
DUBOIS         FAIR      50  37  62 N6        30.08R
LANDER         PTCLDY    66  43  43 CALM      29.96S
RIVERTON       MOCLDY    63  39  41 E3        29.98R
CASPER         CLEAR     61  44  53 N9        29.97R
DOUGLAS        PTCLDY    61  46  57 N13       29.95R

$$
WYZ021-027>030-104>119-010200-
SOUTHERN WYOMING

CITY           SKY/WX    TMP DP  RH WIND       PRES   REMARKS
EVANSTON       SUNNY     60  26  27 W18       30.14R
KEMMERER       CLEAR     59  32  36 W14       30.13R
FORT BRIDGER   FAIR      63  30  29 W13G25    30.14R
ROCK SPRINGS   CLEAR     61  33  35 NW22      30.07R
DIXON          FAIR      66  36  33 NW12      30.07R
RAWLINS        PTCLDY    61  29  29 W17G30    30.03S
SARATOGA       FAIR      61  36  39 NW10G22   30.07R
LARAMIE        PTCLDY    60  37  42 W16       30.03S
CHEYENNE       CLEAR     68  37  32 W21G26    29.98R
TORRINGTON     PTCLDY    61  47  59 N12       29.88R
PINE BLUFFS    FAIR      63  45  51 N13G20    29.93R

$$



USA.gov is the U.S. government's official web portal to all federal, state and local government web resources and services.